Printer-friendly version

IAU Minor Planet Center

Minor Planet Center

MPEC 2006-J35 : 2006 JY25

The following Minor Planet Electronic Circular may be linked-to from your own Web pages, but must not otherwise be redistributed electronically.


Read MPEC 2006-J34 Read MPEC 2006-J36


M.P.E.C. 2006-J35                                Issued 2006 May 8, 09:24 UT

     The Minor Planet Electronic Circulars contain information on unusual
         minor planets and routine data on comets.  They are published
   on behalf of Commission 20 of the International Astronomical Union by the
          Minor Planet Center, Smithsonian Astrophysical Observatory,
                          Cambridge, MA 02138, U.S.A.

                  Supported in part by the Brinson Foundation
                  Supported in part by the TABASGO Foundation
             Prepared using the Tamkin Foundation Computer Network

                              MPC@CFA.HARVARD.EDU
          URL http://cfa-www.harvard.edu/iau/mpc.html  ISSN 1523-6714

                                   2006 JY25

Observations:
     K06J25Y* C2006 05 06.36266 16 26 41.02 -17 54 02.8          20.5 V EJ035G96
     K06J25Y  C2006 05 06.36698 16 26 40.45 -17 54 03.6          21.0 V EJ035G96
     K06J25Y  C2006 05 06.37130 16 26 39.87 -17 54 03.7          20.7 V EJ035G96
     K06J25Y  C2006 05 06.37566 16 26 39.30 -17 54 03.8          20.7 V EJ035G96
     K06J25Y  C2006 05 06.40829 16 26 35.08 -17 54 04.5          21.0 V EJ035G96
     K06J25Y  C2006 05 06.41146 16 26 34.65 -17 54 04.7          20.8 V EJ035G96
     K06J25Y  C2006 05 06.41462 16 26 34.22 -17 54 05.1          20.7 V EJ035G96
     K06J25Y  C2006 05 06.41778 16 26 33.82 -17 54 05.7          20.0 V EJ035G96
     K06J25Y  C2006 05 06.42577 16 26 32.71 -17 54 05.0          21.0 V EJ035G96
     K06J25Y  C2006 05 06.42895 16 26 32.20 -17 54 03.9          21.0 V EJ035G96
     K06J25Y  C2006 05 06.43212 16 26 31.88 -17 54 05.2          21.0 V EJ035G96
     K06J25Y  C2006 05 06.43549 16 26 31.48 -17 54 04.5          21.0 V EJ035G96
     K06J25Y  C2006 05 07.36748 16 24 32.76 -17 54 41.0          20.9 V EJ035G96
     K06J25Y  C2006 05 07.37475 16 24 31.75 -17 54 41.6          20.6 V EJ035G96
     K06J25Y  C2006 05 07.38228 16 24 30.74 -17 54 41.6          20.5 V EJ035G96
     K06J25Y HC2006 05 08.35195 16 22 21.43 -17 55 15.6                 EJ035291
     K06J25Y  C2006 05 08.35605 16 22 20.87 -17 55 15.1                 EJ035291
     K06J25Y  C2006 05 08.35994 16 22 20.26 -17 55 15.2                 EJ035291

Observer details:
291 LPL/Spacewatch II.  Observer R. S. McMillan.  1.8-m f/2.7 reflector + CCD.
G96 Mt. Lemmon Survey.  Observer A. D. Grauer.  Measurers E. C. Beshore,
    E. J. Christensen, G. J. Garradd, A. R. Gibbs, A. D. Grauer, R. E. Hill,
    R. A. Kowalski, S. M. Larson, R. H. McNaught.  1.5-m reflector + CCD.

Orbital elements:
2006 JY25                                                Earth MOID = 0.0626 AU
Epoch 2006 Mar. 6.0 TT = JDT 2453800.5                  MPC
M 185.12726              (2000.0)            P               Q
n   0.84645482     Peri.  321.57551     +0.89454981     -0.43683709
a   1.1067942      Node    64.57505     +0.43161154     +0.78921893
e   0.4297711      Incl.    6.01409     +0.11615555     +0.43163275
P   1.16           H   20.7           G   0.15           U   9
Residuals in seconds of arc
060506 G96  0.1-  0.0     060506 G96  0.4+  0.4-    060507 G96  0.0   0.4+
060506 G96  0.1-  0.6-    060506 G96  0.6+  0.9-    060507 G96  0.2-  0.1+
060506 G96  0.3-  0.5-    060506 G96  0.3-  0.1+    060507 G96  0.2+  0.3+
060506 G96  0.2-  0.4-    060506 G96  1.6-  1.3+    060508 291  0.0   0.5-
060506 G96  0.8+  0.0     060506 G96  0.2-  0.1+    060508 291  0.4+  0.2+
060506 G96  0.6+  0.1-    060506 G96  0.4+  0.9+    060508 291  0.4-  0.2+

Ephemeris:
2006 JY25                a,e,i = 1.11, 0.43, 6                   q = 0.6311
Date    TT    R. A. (2000) Decl.     Delta      r     Elong.  Phase     V
2006 05 05    16 29.42   -17 52.9    0.492    1.471   155.5    16.5    20.9
2006 05 15    16 05.07   -17 56.4    0.427    1.434   170.8     6.5    20.1
2006 05 25    15 31.78   -17 45.9    0.383    1.392   171.3     6.3    19.8
2006 06 04    14 53.95   -17 16.9    0.360    1.345   153.0    20.1    20.1
2006 06 14    14 18.39   -16 39.2    0.356    1.292   135.1    33.7    20.4
2006 06 24    13 49.93   -16 10.6    0.364    1.234   118.9    46.2    20.7
2006 07 04    13 29.78   -16 04.8    0.376    1.171   104.8    57.1    21.0
2006 07 14    13 16.27   -16 23.1    0.386    1.102    92.4    67.1    21.2
2006 07 24    13 06.55   -16 58.0    0.388    1.030    81.1    77.1    21.4
2006 08 03    12 57.29   -17 35.4    0.381    0.954    69.9    88.0    21.6

Timothy B. Spahr             (C) Copyright 2006 MPC           M.P.E.C. 2006-J35

Read MPEC 2006-J34 Read MPEC 2006-J36


Our Web policy. Index to the CBAT/MPC/ICQ pages.


Valid HTML 4.01!